Location: Baix
(44.7118°N, 4.7648°E)
Time: 22:03:06
(UTC+00:00)

A-11 Canister half - Visible Passes

Search period start: 25 November 2020 00:00
Search period end: 05 December 2020 00:00
Orbit: 1525 x 1683 km, 47.3° (Epoch: 25 November)

Date Brightness Start Highest point End Pass type
(mag) Time Alt. Az. Time Alt. Az. Time Alt. Az.
25 Nov 11.3 04:14:03 10° SSE 04:20:40 20° SE 04:27:12 10° E visible
25 Nov 9.9 06:14:24 10° SW 06:24:14 58° SE 06:33:52 10° ENE visible
26 Nov 11.2 03:52:47 10° SSE 03:59:04 19° SE 04:05:18 10° E visible
26 Nov 9.9 05:52:48 10° SW 06:02:35 56° SE 06:12:12 10° ENE visible
27 Nov 11.2 03:31:34 10° SSE 03:37:30 17° SE 03:43:23 10° E visible
27 Nov 9.9 05:31:13 10° SW 05:40:57 54° SE 05:50:31 10° ENE visible
28 Nov 11.2 03:10:25 10° SSE 03:15:56 16° SE 03:21:24 10° E visible
28 Nov 9.9 05:09:37 10° SW 05:19:18 52° SE 05:28:50 10° ENE visible
29 Nov 11.2 02:49:19 10° SSE 02:54:21 15° ESE 02:59:23 10° E visible
29 Nov 9.9 04:48:02 10° SSW 04:57:40 50° SE 05:07:09 10° ENE visible
30 Nov 11.2 02:28:17 10° SSE 02:32:47 14° ESE 02:37:16 10° E visible
30 Nov 9.9 04:26:29 10° SSW 04:36:02 48° SE 04:45:28 10° ENE visible
01 Dec 11.2 02:07:22 10° SE 02:11:14 13° ESE 02:15:05 10° E visible
01 Dec 9.9 04:05:32 12° SSW 04:14:24 46° SE 04:23:46 10° ENE visible
01 Dec 9.2 06:08:51 10° WSW 06:19:04 90° WNW 06:29:04 10° ENE visible
02 Dec 11.2 01:47:57 11° SE 01:49:40 12° ESE 01:52:42 10° ESE visible
02 Dec 9.9 03:46:20 21° SSW 03:52:45 44° SE 04:02:04 10° ENE visible
02 Dec 9.2 05:47:09 10° WSW 05:57:23 89° SSE 06:07:24 10° ENE visible
03 Dec 11.2 01:28:30 11° ESE 01:28:30 11° ESE 01:29:55 10° ESE visible
03 Dec 9.9 03:26:52 30° S 03:31:08 42° SE 03:40:21 10° ENE visible
03 Dec 9.2 05:25:28 10° WSW 05:35:41 87° SSE 05:45:44 10° ENE visible
04 Dec 9.9 03:07:13 36° SSE 03:09:30 41° SE 03:18:38 10° ENE visible
04 Dec 9.2 05:05:34 17° WSW 05:13:59 85° SSE 05:24:03 10° ENE visible
